Flag for Netherlands Weather past 2 weeks in Utrecht, Netherlands

Now
64 °F

Passing clouds.


Feels Like: 64 °F
Forecast: 52 / 70 °F
Wind: 3 mph from Northeast

Location: Amsterdam Schiphol Airport

Current Time: Oct 2, 2014 at 1:20:26 PM

Latest Report: Oct 2, 2014 at 12:55 PM


Visibility: N/A

Pressure: 30.39 "Hg

Humidity: 78%

Dew point: 57 °F

Location of UtrechtLocation

Historic Weather in Utrecht — Graph

°F

Utrecht temperature yesterday

Maximum temperature yesterday: 68 °F (at 2:25 PM)
Minimum temperature yesterday: 52 °F (at 4:25 AM)
Average temperature yesterday: 61 °F

Past Weeks' High & Low Weather Summary

 TemperatureHumidityPressure
High77 °F (Sep 17, 3:25 PM)100% (Sep 18, 3:55 AM)30.39 "Hg (Sep 18, 3:55 AM)
Low48 °F (Sep 23, 2:25 AM)45% (Sep 22, 2:25 PM)29.80 "Hg (Sep 18, 2:25 PM)
Average61 °F84%30.08 "Hg
* Reported Sep 17 11:25 AM — Oct 2 11:55 AM, Utrecht, Weather by CustomWeather, © 2014

Note: Actual official high and low records may vary slightly from our data, if they occured in-between our weather recording intervals... More about our weather records

Advertising

Utrecht weather history for previous 24 hours

 ConditionsComfort  
Time TempWeatherWind HumidityBarometerVisibility
11:55 AM
Oct 2
64 °FPassing clouds.6 mph78%30.39 "HgN/A
11:25 AM64 °FPassing clouds.7 mph78%30.39 "HgN/A
10:55 AM63 °FPassing clouds.7 mph83%30.39 "HgN/A
10:25 AM63 °FPassing clouds.6 mph83%30.39 "HgN/A
9:55 AM61 °FPassing clouds.6 mph88%30.39 "HgN/A
9:25 AM61 °FPassing clouds.7 mph88%30.39 "HgN/A
8:55 AM61 °FPassing clouds.6 mph88%30.36 "HgN/A
8:25 AM59 °FPassing clouds.6 mph94%30.36 "HgN/A
7:55 AM59 °FPassing clouds.5 mph94%30.36 "HgN/A
7:25 AM59 °FPassing clouds.6 mph94%30.36 "Hg6 mi
6:55 AM59 °FPassing clouds.6 mph100%30.36 "HgN/A
6:25 AM61 °FPassing clouds.5 mph94%30.36 "HgN/A
5:55 AM61 °FPassing clouds.5 mph94%30.33 "HgN/A
5:25 AM61 °FPassing clouds.3 mph94%30.33 "HgN/A
4:55 AM61 °FPassing clouds.5 mph94%30.33 "HgN/A
4:25 AM61 °FPassing clouds.3 mph94%30.33 "HgN/A
3:55 AM61 °FPassing clouds.6 mph88%30.33 "HgN/A
3:25 AM61 °FPartly cloudy.7 mph88%30.33 "HgN/A
2:55 AM61 °FPassing clouds.3 mph100%30.33 "HgN/A
2:25 AM63 °FPassing clouds.5 mph94%30.33 "HgN/A
1:55 AM61 °FPassing clouds.5 mph100%30.33 "HgN/A
1:25 AM63 °FPassing clouds.6 mph94%30.33 "HgN/A
12:55 AM63 °FPassing clouds.5 mph94%30.33 "HgN/A
12:25 AM63 °FPassing clouds.5 mph94%30.33 "HgN/A
11:55 PM
Oct 1
63 °FPassing clouds.3 mph94%30.33 "HgN/A
11:25 PM63 °FPartly cloudy.5 mph94%30.33 "HgN/A
10:55 PM63 °FPassing clouds.3 mph94%30.30 "HgN/A
10:25 PM63 °FPassing clouds.5 mph94%30.30 "HgN/A
9:55 PM63 °FPassing clouds.6 mph94%30.30 "HgN/A
9:25 PM64 °FLight rain. Partly cloudy.8 mph88%30.30 "HgN/A
8:55 PM64 °FPassing clouds.8 mph83%30.30 "HgN/A
8:25 PM64 °FPassing clouds.7 mph83%30.30 "HgN/A
7:55 PM64 °FPassing clouds.8 mph78%30.30 "HgN/A
7:25 PM66 °FPassing clouds.8 mph73%30.30 "HgN/A
6:55 PM66 °FSunny.8 mph73%30.27 "Hg10 mi
6:25 PM66 °FSunny.10 mph73%30.27 "Hg10 mi
5:55 PM68 °FScattered clouds.12 mph69%30.27 "HgN/A
5:25 PM68 °FScattered clouds.10 mph69%30.27 "HgN/A
4:55 PM68 °FScattered clouds.13 mph73%30.27 "HgN/A
4:25 PM68 °FScattered clouds.14 mph73%30.27 "HgN/A
3:55 PM66 °FScattered clouds.12 mph83%30.27 "HgN/A
3:25 PM66 °FScattered clouds.9 mph83%30.27 "HgN/A
2:55 PM66 °FScattered clouds.10 mph83%30.27 "HgN/A
2:25 PM68 °FScattered clouds.12 mph78%30.27 "HgN/A
1:55 PM66 °FPassing clouds.10 mph83%30.27 "HgN/A
1:25 PM66 °FScattered clouds.10 mph83%30.27 "HgN/A
Weather by CustomWeather, © 2014

See weather overviewHow to use our weather pages